Regional Weather Roundup
Issued by NWS Green Bay, WI

Home | Current Version | Previous Version | Text Only | Print | Product List | Glossary On
Versions: 1 2 3 4 5 6 7 8 9 10 11 12 13 14 15 16 17 18 19 20 21 22 23 24 25 26 27 28 29 30 31 32 33 34 35 36 37 38 39 40 41 42 43 44 45 46 47 48 49 50
000
ASUS43 KGRB 141700
RWRGRB

NORTH-CENTRAL AND NORTHEAST WISCONSIN REGIONAL WEATHER ROUNDUP
NATIONAL WEATHER SERVICE GREEN BAY WI
1100 AM CST SUN FEB 14 2016

WIZ005-009-010>012-018-019-141800-
NORTH CENTRAL WISCONSIN

CITY           SKY/WX    TMP DP  RH WIND       PRES   REMARKS
IRONWOOD       SUNNY     12  -9  37 S13       30.06F WCI  -3
MANITOWISH WTR NOT AVBL
ARBOR VITAE    NOT AVBL
EAGLE RIVER    NOT AVBL
LAND O LAKES   NOT AVBL
RHINELANDER    CLOUDY    11 -13  33 S17G24    30.12S WCI  -6
PHILLIPS       NOT AVBL
ANTIGO         NOT AVBL
TOMAHAWK       NOT AVBL
MERRILL        NOT AVBL
$$

WIZ013-073-141800-
NORTHEAST WISCONSIN

CITY           SKY/WX    TMP DP  RH WIND       PRES   REMARKS
IRON MOUNTAIN  CLOUDY    13  -4  46 S12       30.18F WCI  -1
MARINETTE      CLOUDY    12   0  57 E6        30.26S WCI   3
$$

WIZ017-030-035>037-045-141800-
CENTRAL WISCONSIN

CITY           SKY/WX    TMP DP  RH WIND       PRES   REMARKS
MEDFORD        NOT AVBL
WAUSAU         CLOUDY    14  -1  51 SE16      30.15F WCI  -2
MOSINEE        NOT AVBL
MARSHFIELD     CLOUDY    12  -5  46 SE16G23   30.11F WCI  -5
WISC RAPIDS    CLOUDY    14  -6  40 S13G18    30.17F WCI   0
STEVENS POINT  NOT AVBL
WAUPACA        NOT AVBL
SHAWANO        NOT AVBL
CLINTONVILLE   NOT AVBL
WAUTOMA        NOT AVBL
$$

WIZ038-039-048-051-141800-
FOX VALLEY

CITY           SKY/WX    TMP DP  RH WIND       PRES   REMARKS
NWS GREEN BAY  CLOUDY    14   4  64 S6        30.25S WCI   5
APPLETON       PTSUNNY   16   3  57 SE12      30.21S WCI   3
OSHKOSH        SUNNY     16   5  62 S13       30.22F WCI   2
FOND DU LAC    CLOUDY    19   9  65 S22       30.22F WCI   2
$$

WIZ022-050-052-141800-
EAST CENTRAL WISCONSIN

CITY           SKY/WX    TMP DP  RH WIND       PRES   REMARKS
EPHRAIM        NOT AVBL
STURGEON BAY   CLOUDY    12   5  73 E5        30.27F WCI   4
MANITOWOC      LGT SNOW  19  10  68 CALM      30.26S
SHEBOYGAN      LGT SNOW  15  10  80 S3        30.25R VSB 3/4
$$

LMZ563-521-522-541>543-141800-
LAKESHORE

STATION/POSITION TIME  TEMP    WIND        PRES    VSBY  WAVE
                       AIR SEA DIR/SP/G                  HT/PER
                 (UTC) (F)     (DEG/KT/KT) (MB)    (MI)  (FT/S)
SHEBOYGAN LKSHOR 1600   16     190/  3/  5 1025.9F
KEWAUNEE LKSHORE 1600   14      30/  3/  4 1023.7F
SISTER BAY LKSHO 1604   13     350/  5/  6   N/A
CHAMBERS ISLAND  1600   20      10/  3/  4 1025.4F
MENOMINEE LKSHOR 1600    8      40/  2     1023.9F
$$



USA.gov is the U.S. government's official web portal to all federal, state and local government web resources and services.